Flag for Germany Weather past 2 weeks in Hürth, North Rhine-Westphalia, Germany

Now
50 °F

Cool.


Feels Like: 50 °F
Forecast: 49 / 60 °F
Wind: 2 mph from Southeast

Location: Noervenich

Current Time: Oct 25, 2014 at 6:47:52 AM

Latest Report: Oct 25, 2014 at 6:20 AM


Visibility: 1 mi

Pressure: 30.04 "Hg

Humidity: 100%

Dew point: 50 °F

Location of HürthLocation

Historic Weather in Hürth — Graph

°F

Hürth temperature yesterday

Maximum temperature yesterday: 57 °F (at 3:20 PM)
Minimum temperature yesterday: 50 °F (at 4:20 AM)
Average temperature yesterday: 53 °F

Past Weeks' High & Low Weather Summary

 TemperatureHumidityPressure
High75 °F (Oct 19, 2:20 PM)100% (Oct 11, 5:20 AM)30.24 "Hg (Oct 11, 5:20 AM)
Low43 °F (Oct 22, 3:20 AM)46% (Oct 14, 2:20 PM)29.53 "Hg (Oct 21, 4:20 PM)
Average56 °F81%29.93 "Hg
* Reported Oct 10 5:20 AM — Oct 25 5:20 AM, Hürth, Weather by CustomWeather, © 2014

Note: Actual official high and low records may vary slightly from our data, if they occured in-between our weather recording intervals... More about our weather records

Advertising

Hürth weather history for previous 24 hours

 ConditionsComfort  
Time TempWeatherWind HumidityBarometerVisibility
5:20 AM
Oct 25
50 °FPassing clouds.2 mph94%30.04 "HgN/A
4:20 AM50 °FPassing clouds.2 mph94%30.04 "HgN/A
3:20 AM50 °FPassing clouds.2 mph94%30.04 "HgN/A
2:20 AM50 °FPassing clouds.1 mph94%30.07 "HgN/A
1:20 AM52 °FPassing clouds.1 mph82%30.07 "HgN/A
12:20 AM52 °FPassing clouds.1 mph82%30.07 "HgN/A
11:20 PM
Oct 24
52 °FPassing clouds.2 mph77%30.07 "HgN/A
10:20 PM52 °FPassing clouds.3 mph77%30.07 "HgN/A
9:20 PM52 °FPartly cloudy.3 mph77%30.07 "HgN/A
8:20 PM52 °FPassing clouds.2 mph82%30.07 "HgN/A
7:20 PM54 °FPartly sunny.1 mph77%30.07 "HgN/A
6:20 PM55 °FPartly sunny.2 mph72%30.07 "HgN/A
5:20 PM55 °FBroken clouds.3 mph72%30.07 "HgN/A
4:20 PM57 °FPartly sunny.5 mph67%30.09 "HgN/A
3:20 PM57 °FPartly sunny.5 mph63%30.09 "HgN/A
2:20 PM55 °FPartly sunny.7 mph67%30.12 "HgN/A
1:20 PM55 °FPartly sunny.8 mph67%30.12 "HgN/A
12:20 PM54 °FPartly sunny.5 mph72%30.15 "HgN/A
11:50 AM54 °FPartly sunny.5 mph77%30.15 "HgN/A
11:20 AM54 °FPartly sunny.3 mph77%30.15 "HgN/A
10:20 AM54 °FPartly sunny.5 mph72%30.15 "HgN/A
9:20 AM52 °FPartly sunny.5 mph77%30.15 "HgN/A
8:20 AM52 °FPassing clouds.2 mph77%30.15 "HgN/A
7:20 AM52 °FPassing clouds.3 mph82%30.15 "HgN/A
6:20 AM52 °FPassing clouds.1 mph82%30.15 "HgN/A
Weather by CustomWeather, © 2014

See weather overviewHow to use our weather pages